FW6662 Weather Reports


Display with metric or nautical units.
time (UTC)temp
F
wind
direction
speed
MPH
gust
MPH
rain 1hr
in
rain 24hr
in
rain mn
in
humidity
%
barometer
mb
20260905234505 66 186 0.0 3.0 0.00 0.00 0.00 87 1014.2
20260905234005 66 174 0.0 3.0 0.00 0.00 0.00 87 1014.2
20260905233504 66 166 0.0 3.0 0.00 0.00 0.00 86 1014.2
20260905233005 66 160 0.0 1.0 0.00 0.00 0.00 87 1014.3
20260905232504 66 160 0.0 1.0 0.00 0.00 0.00 86 1014.2
20260905232004 66 161 0.0 3.0 0.00 0.00 0.00 86 1014.2
20260905231505 67 193 0.0 3.0 0.00 0.00 0.00 85 1014.1
20260905231004 67 289 0.0 3.0 0.00 0.00 0.00 85 1014.1
20260905230504 67 307 0.0 3.0 0.00 0.00 0.00 86 1014.0
20260905230005 68 306 0.0 3.0 0.00 0.00 0.00 85 1014.0
20260905225525 68 0 0.0 0.0 0.00 0.00 0.00 86 1014.1
20260905225005 68 0 0.0 0.0 0.00 0.00 0.00 85 1014.1
20260905224526 68 0 0.0 0.0 0.00 0.00 0.00 85 1014.0
20260905224025 68 0 0.0 0.0 0.00 0.00 0.00 85 1014.0
20260905223504 69 0 0.0 0.0 0.00 0.00 0.00 84 1014.0
20260905223025 69 0 0.0 0.0 0.00 0.00 0.00 84 1014.1
20260905222504 69 0 0.0 0.0 0.00 0.00 0.00 83 1014.0
20260905222004 69 0 0.0 0.0 0.00 0.00 0.00 83 1014.2
20260905221504 70 9 1.0 3.0 0.00 0.00 0.00 82 1014.1
20260905221004 70 38 1.0 3.0 0.00 0.00 0.00 82 1013.9
20260905220504 70 35 1.0 4.0 0.00 0.00 0.00 79 1013.9
20260905220004 70 16 1.0 4.0 0.00 0.00 0.00 82 1013.9
20260905215505 70 345 1.0 4.0 0.00 0.00 0.00 81 1013.9
20260905215004 71 350 1.0 4.0 0.00 0.00 0.00 82 1013.8
20260905214504 71 341 1.0 6.0 0.00 0.00 0.00 81 1013.7
20260905214004 71 323 1.0 6.0 0.00 0.00 0.00 80 1013.7
20260905213504 71 167 1.0 3.0 0.00 0.00 0.00 79 1013.7
20260905213004 72 236 1.0 4.0 0.00 0.00 0.00 79 1013.7
20260905212504 72 343 1.0 4.0 0.00 0.00 0.00 78 1013.8
20260905212004 72 248 1.0 6.0 0.00 0.00 0.00 79 1013.7
20260905211525 72 236 1.0 6.0 0.00 0.00 0.00 79 1013.7
20260905211025 72 126 1.0 9.0 0.00 0.00 0.00 78 1013.7
20260905210525 72 67 1.0 9.0 0.00 0.00 0.00 79 1013.7
20260905210004 72 317 1.0 4.0 0.00 0.00 0.00 78 1013.8
20260905205504 72 236 1.0 4.0 0.00 0.00 0.00 78 1013.7
20260905205004 72 115 0.0 3.0 0.00 0.00 0.00 77 1013.7
20260905204525 72 163 1.0 4.0 0.00 0.00 0.00 77 1013.5
20260905204004 72 162 1.0 6.0 0.00 0.00 0.00 74 1013.7
20260905203504 72 164 1.0 6.0 0.00 0.00 0.00 72 1013.6
20260905203004 73 173 1.0 4.0 0.00 0.00 0.00 75 1013.5
20260905202525 73 149 1.0 4.0 0.00 0.00 0.00 75 1013.5
20260905202004 73 106 1.0 7.0 0.00 0.00 0.00 74 1013.5
20260905201525 74 48 1.0 7.0 0.00 0.00 0.00 73 1013.4
20260905201004 74 286 1.0 6.0 0.00 0.00 0.00 73 1013.4
20260905200504 74 267 1.0 7.0 0.00 0.00 0.00 72 1013.5
20260905200004 75 207 1.0 7.0 0.00 0.00 0.00 70 1013.4
20260905195504 75 222 1.0 10.0 0.00 0.00 0.00 71 1013.5
20260905195004 75 249 3.0 10.0 0.00 0.00 0.00 66 1013.5
20260905194504 76 316 3.0 9.0 0.00 0.00 0.00 67 1013.5
20260905194004 76 342 1.0 9.0 0.00 0.00 0.00 68 1013.4
20260905193504 76 315 1.0 7.0 0.00 0.00 0.00 61 1013.3
20260905193004 76 343 1.0 6.0 0.00 0.00 0.00 67 1013.5
20260905192504 76 269 1.0 6.0 0.00 0.00 0.00 69 1013.6
20260905192004 75 310 1.0 7.0 0.00 0.00 0.00 68 1013.6
20260905191504 75 331 1.0 7.0 0.00 0.00 0.00 72 1013.7
20260905191004 74 267 1.0 6.0 0.00 0.00 0.00 71 1013.6
20260905190504 74 304 1.0 9.0 0.00 0.00 0.00 73 1013.7
20260905190025 74 295 1.0 9.0 0.00 0.00 0.00 71 1013.7
20260905185504 75 271 1.0 6.0 0.00 0.00 0.00 70 1013.8
20260905185004 75 310 1.0 6.0 0.00 0.00 0.00 66 1013.8
20260905184525 75 326 1.0 6.0 0.00 0.00 0.00 69 1013.8
20260905184004 75 322 1.0 4.0 0.00 0.00 0.00 69 1013.8
20260905183525 74 246 1.0 4.0 0.00 0.00 0.00 73 1013.8
20260905183025 74 206 1.0 6.0 0.00 0.00 0.00 69 1013.7
20260905182504 73 197 1.0 6.0 0.00 0.00 0.00 74 1013.8
20260905182004 73 30 1.0 4.0 0.00 0.00 0.00 76 1014.0
20260905181504 72 356 1.0 6.0 0.00 0.00 0.00 74 1014.0
20260905181004 72 14 1.0 6.0 0.00 0.00 0.00 76 1014.0
20260905180525 72 70 0.0 3.0 0.00 0.00 0.00 75 1013.9
20260905180004 73 86 0.0 6.0 0.00 0.00 0.00 72 1014.0
20260905175525 73 215 1.0 6.0 0.00 0.00 0.00 71 1014.0
20260905175004 73 232 1.0 7.0 0.00 0.00 0.00 71 1014.0
20260905174504 73 203 1.0 7.0 0.00 0.00 0.00 72 1014.0
20260905174004 73 220 3.0 9.0 0.00 0.00 0.00 72 1013.9
20260905173504 72 244 1.0 9.0 0.00 0.00 0.00 76 1014.1
20260905173004 72 243 1.0 6.0 0.00 0.00 0.00 73 1014.1
20260905172504 71 260 1.0 6.0 0.00 0.00 0.00 72 1014.1
20260905172004 71 179 1.0 4.0 0.00 0.00 0.00 79 1014.3
20260905171504 70 188 1.0 4.0 0.00 0.00 0.00 81 1014.3
20260905171004 70 304 0.0 4.0 0.00 0.00 0.00 79 1014.3
20260905170504 70 25 0.0 4.0 0.00 0.00 0.00 83 1014.4
20260905170004 70 70 1.0 6.0 0.00 0.00 0.00 81 1014.4
20260905165525 70 9 1.0 9.0 0.00 0.00 0.00 79 1014.5
20260905165004 70 311 1.0 9.0 0.00 0.00 0.00 81 1014.5
20260905164504 70 87 0.0 3.0 0.00 0.00 0.00 81 1014.7
20260905164004 70 96 1.0 3.0 0.00 0.00 0.00 79 1014.7
20260905163504 70 125 1.0 3.0 0.00 0.00 0.00 77 1014.5
20260905163004 70 214 1.0 3.0 0.00 0.00 0.00 76 1014.7
20260905162504 71 257 1.0 4.0 0.00 0.00 0.00 77 1014.7
20260905162004 71 176 1.0 6.0 0.00 0.00 0.00 76 1014.8
20260905161504 71 165 1.0 6.0 0.00 0.00 0.00 76 1014.8
20260905161004 71 161 1.0 6.0 0.00 0.00 0.00 78 1014.7
20260905160504 72 210 1.0 6.0 0.00 0.00 0.00 73 1014.7
20260905160004 72 204 1.0 9.0 0.00 0.00 0.00 76 1014.8
20260905155504 73 179 1.0 9.0 0.00 0.00 0.00 70 1014.6
20260905155004 73 183 1.0 7.0 0.00 0.00 0.00 73 1014.7
20260905154525 73 186 1.0 6.0 0.00 0.00 0.00 74 1015.1
20260905154004 73 279 1.0 6.0 0.00 0.00 0.00 72 1014.6
20260905153504 73 302 1.0 7.0 0.00 0.00 0.00 75 1014.5
20260905153004 72 146 1.0 7.0 0.00 0.00 0.00 76 1014.4
20260905152504 72 230 1.0 10.0 0.00 0.00 0.00 74 1014.6
20260905152004 71 251 3.0 12.0 0.00 0.00 0.00 80 1014.7
20260905151504 71 210 3.0 12.0 0.00 0.00 0.00 78 1014.7
20260905151004 70 222 1.0 7.0 0.00 0.00 0.00 86 1014.8
20260905150525 69 215 1.0 10.0 0.00 0.00 0.00 81 1014.6
20260905150004 69 253 1.0 10.0 0.00 0.00 0.00 80 1014.7
20260905145504 69 296 1.0 14.0 0.00 0.00 0.00 83 1014.8
20260905145004 68 251 3.0 14.0 0.00 0.00 0.00 83 1014.8
20260905144504 68 158 1.0 6.0 0.00 0.00 0.00 83 1014.8
20260905144004 68 157 1.0 12.0 0.00 0.00 0.00 86 1014.8
20260905143504 67 192 1.0 12.0 0.00 0.00 0.00 87 1014.8
20260905143004 67 270 1.0 9.0 0.00 0.00 0.00 86 1014.9
20260905142504 66 336 1.0 4.0 0.00 0.00 0.00 86 1014.7
20260905142025 66 107 1.0 6.0 0.00 0.00 0.00 86 1014.8
20260905141504 65 134 1.0 6.0 0.00 0.00 0.00 87 1015.0
20260905141004 65 329 1.0 6.0 0.00 0.00 0.00 88 1014.8
20260905140504 65 303 1.0 7.0 0.00 0.00 0.00 91 1014.8
20260905140004 65 234 1.0 7.0 0.00 0.00 0.00 88 1014.9
20260905135504 65 257 1.0 6.0 0.00 0.00 0.00 91 1014.9
20260905135004 65 226 1.0 6.0 0.00 0.00 0.00 92 1014.9
20260905134504 65 178 1.0 7.0 0.00 0.00 0.00 91 1014.8
20260905134004 65 184 1.0 7.0 0.00 0.00 0.00 91 1014.9
20260905133504 64 203 1.0 4.0 0.00 0.00 0.00 92 1015.0
20260905133004 64 7 1.0 4.0 0.00 0.00 0.00 93 1014.9
20260905132503 64 287 1.0 4.0 0.00 0.00 0.00 94 1014.9
20260905132004 64 196 1.0 4.0 0.00 0.00 0.00 95 1014.8
20260905131504 63 150 0.0 4.0 0.00 0.00 0.00 96 1014.7
20260905131004 63 11 0.0 4.0 0.00 0.00 0.00 95 1014.8
20260905130504 63 8 0.0 3.0 0.00 0.00 0.00 96 1014.7
20260905130004 62 92 0.0 1.0 0.00 0.00 0.00 96 1014.9
20260905125504 62 82 0.0 3.0 0.00 0.00 0.00 96 1014.8
20260905125004 62 79 0.0 3.0 0.00 0.00 0.00 97 1015.0
20260905124504 62 18 1.0 6.0 0.00 0.00 0.00 97 1014.9
20260905124004 62 326 1.0 6.0 0.00 0.00 0.00 97 1014.8
20260905123504 62 304 1.0 6.0 0.00 0.00 0.00 97 1014.8
20260905123004 61 283 1.0 4.0 0.00 0.00 0.00 97 1014.8
20260905122503 61 274 1.0 4.0 0.00 0.00 0.00 97 1014.8
20260905122024 61 303 1.0 4.0 0.00 0.00 0.00 97 1015.1
20260905121503 61 341 1.0 4.0 0.00 0.00 0.00 97 1015.1
20260905121004 61 327 0.0 4.0 0.00 0.00 0.00 98 1015.0
20260905120504 61 263 0.0 3.0 0.00 0.00 0.00 97 1015.0
20260905120004 60 248 0.0 3.0 0.00 0.00 0.00 97 1015.0
20260905115524 60 300 0.0 3.0 0.00 0.00 0.00 97 1014.9
20260905115003 60 298 0.0 3.0 0.00 0.00 0.00 97 1014.7
20260905114504 60 0 0.0 0.0 0.00 0.00 0.00 97 1014.6
20260905114004 60 0 0.0 0.0 0.00 0.00 0.00 97 1014.7
20260905113503 60 0 0.0 0.0 0.00 0.00 0.00 97 1014.6
20260905113004 60 0 0.0 0.0 0.00 0.00 0.00 97 1014.5
20260905112503 60 0 0.0 0.0 0.00 0.00 0.00 97 1014.5
20260905112003 60 0 0.0 0.0 0.00 0.00 0.00 96 1014.5
20260905111503 60 0 0.0 0.0 0.00 0.00 0.00 96 1014.3
20260905111003 60 0 0.0 0.0 0.00 0.00 0.00 96 1014.3
20260905110504 60 0 0.0 0.0 0.00 0.00 0.00 96 1014.3
20260905110004 60 0 0.0 0.0 0.00 0.00 0.00 96 1014.3
20260905105503 60 0 0.0 0.0 0.00 0.00 0.00 96 1014.2
20260905105003 60 0 0.0 0.0 0.00 0.00 0.00 96 1014.2
20260905104524 60 0 0.0 0.0 0.00 0.00 0.00 96 1014.1
20260905104025 60 0 0.0 0.0 0.00 0.00 0.00 95 1013.9
20260905103503 60 0 0.0 0.0 0.00 0.00 0.00 95 1013.7
20260905103025 60 0 0.0 0.0 0.00 0.00 0.00 96 1013.6
20260905102503 61 0 0.0 0.0 0.00 0.00 0.00 96 1013.5
20260905102003 61 0 0.0 0.0 0.00 0.00 0.00 95 1013.6
20260905101524 61 0 0.0 0.0 0.00 0.00 0.00 95 1013.5
20260905101004 61 0 0.0 0.0 0.00 0.00 0.00 95 1013.4
20260905100503 61 0 0.0 0.0 0.00 0.00 0.00 95 1013.3
20260905100003 61 0 0.0 0.0 0.00 0.00 0.00 95 1013.3
20260905095503 61 0 0.0 0.0 0.00 0.00 0.00 95 1013.3
20260905095004 61 0 0.0 0.0 0.00 0.00 0.00 95 1013.3
20260905094504 61 0 0.0 0.0 0.00 0.00 0.00 95 1013.3
20260905094003 61 0 0.0 0.0 0.00 0.00 0.00 94 1013.3
20260905093503 62 0 0.0 0.0 0.00 0.00 0.00 95 1013.3
20260905093024 62 0 0.0 0.0 0.00 0.00 0.00 95 1013.3
20260905092503 62 0 0.0 0.0 0.00 0.00 0.00 94 1013.3
20260905092024 62 0 0.0 0.0 0.00 0.00 0.00 94 1013.3
20260905091503 62 0 0.0 0.0 0.00 0.00 0.00 94 1013.3
20260905091003 62 0 0.0 0.0 0.00 0.00 0.00 94 1013.2
20260905090503 62 0 0.0 0.0 0.00 0.00 0.00 94 1013.4
20260905090003 62 0 0.0 0.0 0.00 0.00 0.00 94 1013.4
20260905085503 62 0 0.0 0.0 0.00 0.00 0.00 94 1013.3
20260905085003 62 148 0.0 1.0 0.00 0.00 0.00 93 1013.4
20260905084524 62 148 0.0 1.0 0.00 0.00 0.00 93 1013.3
20260905084003 62 148 0.0 1.0 0.00 0.00 0.00 93 1013.3
20260905083503 62 148 0.0 1.0 0.00 0.00 0.00 93 1013.3
20260905083003 62 0 0.0 0.0 0.00 0.00 0.00 93 1013.4
20260905082524 63 0 0.0 0.0 0.00 0.00 0.00 93 1013.4
20260905082003 63 148 0.0 1.0 0.00 0.00 0.00 93 1013.4
20260905081524 63 148 0.0 1.0 0.00 0.00 0.00 93 1013.4
20260905081003 63 148 0.0 1.0 0.00 0.00 0.00 92 1013.4
20260905080503 63 148 0.0 1.0 0.00 0.00 0.00 92 1013.5
20260905080003 63 148 0.0 1.0 0.00 0.00 0.00 93 1013.6
20260905075503 63 148 0.0 1.0 0.00 0.00 0.00 92 1013.6
20260905075024 63 148 0.0 1.0 0.00 0.00 0.00 92 1013.7
20260905074503 64 148 0.0 1.0 0.00 0.00 0.00 92 1013.7
20260905074003 64 148 0.0 1.0 0.00 0.00 0.00 92 1013.8
20260905073503 64 148 0.0 1.0 0.00 0.00 0.00 92 1013.6
20260905073003 64 148 0.0 1.0 0.00 0.00 0.00 92 1013.6
20260905072503 64 148 0.0 1.0 0.00 0.00 0.00 92 1013.6
20260905072003 64 148 0.0 1.0 0.00 0.00 0.00 92 1013.5
20260905071503 64 148 0.0 1.0 0.00 0.00 0.00 92 1013.5
20260905071003 64 148 0.0 1.0 0.00 0.00 0.00 92 1013.7
20260905070503 65 148 0.0 1.0 0.00 0.00 0.00 91 1013.7
20260905070003 65 148 0.0 1.0 0.00 0.00 0.00 92 1013.8
20260905065503 65 149 0.0 1.0 0.00 0.00 0.00 91 1013.9
20260905065003 65 150 0.0 1.0 0.00 0.00 0.00 92 1013.9
20260905064524 65 155 0.0 1.0 0.00 0.00 0.00 92 1014.1
20260905064024 65 155 0.0 1.0 0.00 0.00 0.00 93 1013.9
20260905063503 65 155 0.0 1.0 0.00 0.00 0.00 93 1014.0
20260905063003 65 135 0.0 1.0 0.00 0.00 0.00 92 1014.0
20260905062503 65 135 0.0 1.0 0.00 0.00 0.00 92 1014.1
20260905062003 66 0 0.0 0.0 0.00 0.00 0.00 93 1014.2
20260905061524 66 0 0.0 0.0 0.00 0.00 0.00 94 1014.2
20260905061003 66 0 0.0 0.0 0.00 0.00 0.00 94 1014.2
20260905060503 66 0 0.0 0.0 0.00 0.00 0.00 94 1014.2
20260905060003 66 0 0.0 0.0 0.00 0.00 0.00 94 1014.3
20260905055503 66 0 0.0 0.0 0.00 0.00 0.00 93 1014.3
20260905055003 66 0 0.0 0.0 0.00 0.00 0.00 93 1014.3
20260905054503 66 0 0.0 0.0 0.00 0.00 0.00 93 1014.3
20260905054024 66 0 0.0 0.0 0.00 0.00 0.00 92 1014.3
20260905053503 66 0 0.0 0.0 0.00 0.00 0.00 92 1014.4
20260905053003 66 0 0.0 0.0 0.00 0.00 0.00 92 1014.5
20260905052503 66 0 0.0 0.0 0.00 0.00 0.00 92 1014.7
20260905052003 66 0 0.0 0.0 0.00 0.00 0.00 92 1014.6
20260905051503 66 0 0.0 0.0 0.00 0.00 0.00 92 1014.7
20260905051003 66 0 0.0 0.0 0.00 0.00 0.00 92 1014.7
20260905050503 66 0 0.0 0.0 0.00 0.00 0.00 93 1014.7
20260905050024 66 0 0.0 0.0 0.00 0.00 0.00 93 1014.7
20260905045503 66 0 0.0 0.0 0.00 0.00 0.00 92 1014.7
20260905045003 66 0 0.0 0.0 0.00 0.00 0.00 93 1014.7
20260905044503 66 0 0.0 0.0 0.00 0.00 0.00 92 1014.7
20260905044003 67 0 0.0 0.0 0.00 0.00 0.00 92 1014.6
20260905043524 67 0 0.0 0.0 0.00 0.00 0.00 93 1014.7
20260905043003 67 0 0.0 0.0 0.00 0.00 0.00 92 1014.7
20260905042503 67 0 0.0 0.0 0.00 0.00 0.00 92 1014.8
20260905042003 67 0 0.0 0.0 0.00 0.00 0.00 92 1014.7
20260905041503 67 0 0.0 0.0 0.00 0.00 0.00 93 1014.6
20260905041003 67 0 0.0 0.0 0.00 0.00 0.00 92 1014.6
20260905040503 67 0 0.0 0.0 0.00 0.00 0.00 92 1014.7
20260905040004 67 0 0.0 0.0 0.00 0.00 0.00 92 1014.7
20260905035505 67 0 0.0 0.0 0.00 0.00 0.00 92 1014.7
20260905035005 67 0 0.0 0.0 0.00 0.00 0.00 92 1014.7
20260905034505 67 0 0.0 0.0 0.00 0.00 0.00 92 1014.6
20260905034005 67 0 0.0 0.0 0.00 0.00 0.00 91 1014.6
20260905033505 67 0 0.0 0.0 0.00 0.00 0.00 91 1014.6
20260905033026 67 0 0.0 0.0 0.00 0.00 0.00 91 1014.6
20260905032505 67 0 0.0 0.0 0.00 0.00 0.00 90 1014.6
20260905032005 67 0 0.0 0.0 0.00 0.00 0.00 90 1014.6
20260905031526 67 0 0.0 0.0 0.00 0.00 0.00 90 1014.5
20260905031005 67 0 0.0 0.0 0.00 0.00 0.00 90 1014.4
20260905030505 68 0 0.0 0.0 0.00 0.00 0.00 90 1014.3
20260905030005 68 0 0.0 0.0 0.00 0.00 0.00 91 1014.3
20260905025505 68 0 0.0 0.0 0.00 0.00 0.00 91 1014.3
20260905025005 68 0 0.0 0.0 0.00 0.00 0.00 91 1014.4
20260905024505 68 0 0.0 0.0 0.00 0.00 0.00 91 1014.5
20260905024005 68 0 0.0 0.0 0.00 0.00 0.00 91 1014.5
20260905023505 68 0 0.0 0.0 0.00 0.00 0.00 91 1014.5
20260905023005 68 0 0.0 0.0 0.00 0.00 0.00 90 1014.5
20260905022505 68 0 0.0 0.0 0.00 0.00 0.00 91 1014.5
20260905022005 68 0 0.0 0.0 0.00 0.00 0.00 90 1014.5
20260905021505 68 0 0.0 0.0 0.00 0.00 0.00 91 1014.6
20260905021026 68 0 0.0 0.0 0.00 0.00 0.00 90 1014.4
20260905020526 68 0 0.0 0.0 0.00 0.00 0.00 90 1014.4
20260905020005 68 0 0.0 0.0 0.00 0.00 0.00 91 1014.4
20260905015505 68 0 0.0 0.0 0.00 0.00 0.00 91 1014.5
20260905015005 68 0 0.0 0.0 0.00 0.00 0.00 91 1014.5
20260905014526 68 0 0.0 0.0 0.00 0.00 0.00 91 1014.7
20260905014005 68 0 0.0 0.0 0.00 0.00 0.00 91 1014.6
20260905013505 68 0 0.0 0.0 0.00 0.00 0.00 91 1014.7
20260905013005 68 0 0.0 0.0 0.00 0.00 0.00 90 1014.5
20260905012505 68 0 0.0 0.0 0.00 0.00 0.00 90 1014.4
20260905012005 68 0 0.0 0.0 0.00 0.00 0.00 88 1014.5
20260905011505 68 0 0.0 0.0 0.00 0.00 0.00 88 1014.5
20260905011004 68 0 0.0 0.0 0.00 0.00 0.00 89 1014.5
20260905010505 69 0 0.0 0.0 0.00 0.00 0.00 89 1014.5
20260905010005 68 0 0.0 0.0 0.00 0.00 0.00 87 1014.5
20260905005505 69 0 0.0 0.0 0.00 0.00 0.00 87 1014.6
20260905005005 69 0 0.0 0.0 0.00 0.00 0.00 87 1014.7
20260905004505 69 0 0.0 0.0 0.00 0.00 0.00 88 1014.6
20260905004025 69 0 0.0 0.0 0.00 0.00 0.00 86 1014.7
20260905003505 69 0 0.0 0.0 0.00 0.00 0.00 86 1014.5
20260905003005 69 0 0.0 0.0 0.00 0.00 0.00 87 1014.3
20260905002505 69 0 0.0 0.0 0.00 0.00 0.00 88 1014.3
20260905002005 69 0 0.0 0.0 0.00 0.00 0.00 88 1014.3
20260905001505 69 0 0.0 0.0 0.00 0.00 0.00 87 1014.2
20260905001026 69 0 0.0 0.0 0.00 0.00 0.00 87 1014.2
20260905000504 70 0 0.0 0.0 0.00 0.00 0.00 87 1014.1
20260905000005 70 0 0.0 0.0 0.00 0.00 0.00 88 1013.9
20260904235526 70 0 0.0 0.0 0.00 0.00 0.00 87 1014.2
20260904235026 70 0 0.0 0.0 0.00 0.00 0.00 86 1014.1